Rotterdam, Netherlands

7:40 AM CET on November 18, 2017 (GMT +0100)
Rotterdam

Weather History for EHRD - September, 2013

Change the Weather History Date:

Wednesday, September 18, 2013

  Actual Average Record
Temperature  
Mean Temperature 54 °F -  
Max Temperature 59 °F 59 °F 79 °F (2014)
Min Temperature 49 °F 47 °F 41 °F (2008)
Degree Days  
Heating Degree Days 11    
Growing Degree Days 4 (Base 50)    
Moisture  
Dew Point 50 °F    
Average Humidity 88    
Maximum Humidity 100    
Minimum Humidity 58    
Precipitation  
Precipitation 0.12 in - - ()
Sea Level Pressure  
Sea Level Pressure 29.52 in    
Wind  
Wind Speed 3 mph ()    
Max Wind Speed 13 mph    
Max Gust Speed 23 mph    
Visibility 5.5 miles    
Events Rain    
Averages and records for this station are not official NWS values.
T = Trace of Precipitation, MM = Missing Value Source: Averaged Metar Reports

Daily Weather History Graph

Daily Weather History Graph

Search for Another Location

Airport or City:

Trip Planner

Search our weather history database for the weather conditions in past years. The results will help you decide how hot, cold, wet, or windy it might be!

Date:

Astronomy

Sep. 18, 2013 Rise Set
Actual Time 7:21 AM CEST 7:49 PM CEST
Civil Twilight 6:47 AM CEST 8:23 PM CEST
Nautical Twilight 6:07 AM CEST 9:03 PM CEST
Astronomical Twilight 5:25 AM CEST 9:45 PM CEST
Moon 7:03 PM CEST 6:02 AM CEST
Length of Visible Light 13h 35m
Length of Day
12h 28m
Waxing Gibbous, 99% of the Moon is Illuminated
Sep 18
Waxing Gibbous
Sep 19
Full
Sep 27
Last Quarter
Oct 5
New
Oct 12
First Quarter

Hourly Weather History & Observations

Time (CEST) Temp. Dew Point Humidity Pressure Visibility Wind Dir Wind Speed Gust Speed Precip Events Conditions
12:25 AM 50.0 °F 48.2 °F 94% 29.33 in - NNE 3.5 mph - N/A   Overcast
12:55 AM 50.0 °F 50.0 °F 100% 29.33 in 2.2 mi Variable 2.3 mph - N/A Rain Light Rain
1:25 AM 50.0 °F 50.0 °F 100% 29.33 in 1.8 mi North 3.5 mph - N/A   Overcast
1:55 AM 50.0 °F 50.0 °F 100% 29.36 in 1.6 mi Variable 2.3 mph - N/A   Overcast
2:00 AM 49 °F 49 °F 100% 29.36 in 1 mi North 2.2 mph - -   Unknown Precipitation
2:25 AM 50.0 °F 50.0 °F 100% 29.36 in 1.3 mi North 3.5 mph - N/A   Overcast
2:55 AM 50.0 °F 50.0 °F 100% 29.36 in 1.1 mi Variable 2.3 mph - N/A   Overcast
3:25 AM 50.0 °F 50.0 °F 100% 29.36 in 1.1 mi Variable 2.3 mph - N/A   Overcast
3:55 AM 50.0 °F 50.0 °F 100% 29.36 in 1.3 mi Variable 1.2 mph - N/A   Light Drizzle
4:25 AM 50.0 °F 50.0 °F 100% 29.39 in 1.4 mi Variable 1.2 mph - N/A   Drizzle
4:55 AM 50.0 °F 50.0 °F 100% 29.39 in 1.1 mi Variable 2.3 mph - N/A Rain Light Rain
5:00 AM 50 °F 50 °F 98% 29.40 in 1 mi North 2.2 mph - - Rain Heavy Drizzle
5:25 AM 50.0 °F 50.0 °F 100% 29.39 in 1.2 mi Calm Calm - N/A   Heavy Drizzle
5:55 AM 50.0 °F 50.0 °F 100% 29.39 in - Variable 1.2 mph - N/A   Overcast
6:25 AM 50.0 °F 50.0 °F 100% 29.39 in - SSW 3.5 mph - N/A   Overcast
6:55 AM 50.0 °F 50.0 °F 100% 29.42 in 4.3 mi SSW 3.5 mph - N/A   Mostly Cloudy
7:25 AM 50.0 °F 50.0 °F 100% 29.42 in 5.0 mi Variable 1.2 mph - N/A   Heavy Drizzle
7:55 AM 51.8 °F 50.0 °F 94% 29.42 in 6.2 mi SSW 3.5 mph - N/A   Overcast
8:00 AM 51 °F 51 °F 99% 29.45 in 8 mi SW 2.2 mph - - Rain Drizzle
8:25 AM 51.8 °F 51.8 °F 100% 29.44 in 6.2 mi Variable 2.3 mph - N/A   Mostly Cloudy
8:55 AM 51.8 °F 51.8 °F 100% 29.44 in 6.2 mi Variable 1.2 mph - N/A Rain Light Rain
9:25 AM 53.6 °F 51.8 °F 94% 29.47 in 6.2 mi South 3.5 mph - N/A   Light Drizzle
9:55 AM 53.6 °F 51.8 °F 94% 29.47 in 6.2 mi SSE 3.5 mph - N/A   Unknown
10:25 AM 53.6 °F 51.8 °F 94% 29.47 in 6.2 mi South 3.5 mph - N/A   Mostly Cloudy
10:55 AM 53.6 °F 51.8 °F 94% 29.50 in 6.2 mi Variable 2.3 mph - N/A   Overcast
11:00 AM 53 °F 52 °F 96% 29.52 in 6 mi WSW 2.2 mph - - Rain Light Drizzle
11:25 AM 53.6 °F 51.8 °F 94% 29.50 in 3.1 mi Variable 1.2 mph - N/A Rain Rain Showers
11:55 AM 53.6 °F 50.0 °F 88% 29.50 in 6.2 mi Variable 1.2 mph - N/A   Partly Cloudy
12:25 PM 57.2 °F 50.0 °F 77% 29.50 in 6.2 mi SSE 3.5 mph - N/A   Mostly Cloudy
12:55 PM 59.0 °F 51.8 °F 77% 29.53 in 6.2 mi Variable 3.5 mph - N/A   Mostly Cloudy
1:25 PM 55.4 °F 50.0 °F 82% 29.53 in 6.2 mi Variable 2.3 mph - N/A Rain Light Rain Showers
1:55 PM 55.4 °F 53.6 °F 94% 29.53 in 6.2 mi SSW 4.6 mph - N/A   Scattered Clouds
2:00 PM 58 °F 53 °F 80% 29.56 in 17 mi SSW 4.5 mph - - Rain Rain
2:25 PM 59.0 °F 50.0 °F 72% 29.56 in 6.2 mi NNW 4.6 mph - N/A   Mostly Cloudy
2:55 PM 55.4 °F 51.8 °F 88% 29.56 in 5.6 mi WNW 6.9 mph - N/A Rain Heavy Rain Showers
3:25 PM 57.2 °F 51.8 °F 82% 29.56 in 6.2 mi WNW 5.8 mph - N/A   Mostly Cloudy
3:55 PM 59.0 °F 50.0 °F 72% 29.56 in 6.2 mi WNW 11.5 mph 23.0 mph N/A   Mostly Cloudy
4:25 PM 59.0 °F 50.0 °F 72% 29.59 in 6.2 mi WNW 10.4 mph - N/A   Partly Cloudy
4:55 PM 59.0 °F 48.2 °F 67% 29.59 in 6.2 mi WNW 11.5 mph - N/A   Scattered Clouds
5:00 PM 58 °F 47 °F 58% 29.61 in 16 mi WNW 11.2 mph - -   Partly Cloudy
5:25 PM 59.0 °F 50.0 °F 72% 29.59 in 6.2 mi WNW 11.5 mph - N/A   Mostly Cloudy
5:55 PM 57.2 °F 46.4 °F 67% 29.62 in 6.2 mi WNW 12.7 mph - N/A   Partly Cloudy
6:25 PM 57.2 °F 46.4 °F 67% 29.62 in 6.2 mi WNW 10.4 mph - N/A   Mostly Cloudy
6:55 PM 57.2 °F 46.4 °F 67% 29.65 in 6.2 mi WNW 11.5 mph - N/A   Scattered Clouds
7:25 PM 55.4 °F 44.6 °F 67% 29.65 in 6.2 mi WNW 9.2 mph - N/A   Unknown
7:55 PM 53.6 °F 44.6 °F 72% 29.65 in 6.2 mi WNW 5.8 mph - N/A   Unknown
8:00 PM 53 °F 44 °F 64% 29.68 in 22 mi WNW 4.5 mph - -   Partly Cloudy
8:25 PM 51.8 °F 44.6 °F 76% 29.65 in 6.2 mi WNW 4.6 mph - N/A   Unknown
8:55 PM 51.8 °F 46.4 °F 82% 29.68 in 6.2 mi West 4.6 mph - N/A Rain Light Rain
9:25 PM 51.8 °F 48.2 °F 88% 29.68 in 6.2 mi Variable 2.3 mph - N/A   Partly Cloudy
9:55 PM 50.0 °F 48.2 °F 94% 29.71 in 6.2 mi SW 4.6 mph - N/A   Mostly Cloudy
10:25 PM 51.8 °F 50.0 °F 94% 29.71 in 6.2 mi West 3.5 mph - N/A Rain Light Rain
10:55 PM 51.8 °F 48.2 °F 88% 29.71 in 6.2 mi SW 3.5 mph - N/A   Mostly Cloudy
11:00 PM 51 °F 49 °F 91% 29.74 in 14 mi SW 2.2 mph - - Rain Rain
11:25 PM 51.8 °F 50.0 °F 94% 29.74 in 6.2 mi SSW 6.9 mph - N/A   Mostly Cloudy
11:55 PM 51.8 °F 50.0 °F 94% 29.74 in 6.2 mi South 2.3 mph - N/A   Mostly Cloudy